sat.trackr.live / text

‹ back to catalog

PE2_FLT1 (TYVAK-0261)

NORAD 59105 · 2024-043H

PAYLOAD ACTIVE UNKNOWN

§ Identity

Operator
Country
US
Launch date
2024-03-04
Launch site
AFWTR
Launch vehicle
Mass (kg)
RCS (m²)

External: N2YO · Heavens-Above · Gunter

§ Orbital elements

Epoch: 2026-05-24T22:17:45.225888Z

Period
96.19 min
Inclination
97.8362°
Eccentricity
0.0007532
Mean motion
14.97081649 rev/d
Perigee alt
570.7 km
Apogee alt
581.2 km
Semi-major
6,954.1 km
B*
1.6857e-4
RAAN
275.5149°
Arg perigee
111.5129°
Mean anomaly
248.6896°
Rev number
12,117

§ Raw data

PE2_FLT1 (TYVAK-0261)1 59105U 24043H   26144.92899567  .00001885  00000+0  16857-3 0  99962 59105  97.8362 275.5149 0007532 111.5129 248.6896 14.97081649121171

JSON: /api/v1/satellites/59105 · /tle

For live sub-satellite position, see the globe view (requires WebGL).

§ Visibility from observer

Set your observer location to see the next 7 days of passes ≥ 10°. The values pass through the URL so the page stays shareable.

No JS? Fill the form by hand. The geolocation button needs JavaScript.

§ Radio — SatNOGS DB

ModeDescriptionDownlinkUplink
QPSK Mode S - QPSK - Payload Transmitter 2.492 GHz
GMSK Mode U - GMSK19k6 400.840 MHz
FM Mode X - Payload Data 8.380 GHz

3 transmitters · refreshed weekly from db.satnogs.org